Regional Weather Roundup
Issued by NWS

Home | Current Version | Previous Version | Graphics & Text | Print | Product List | Glossary On
Versions: 1 2 3 4 5 6 7 8 9 10 11 12 13 14 15 16 17 18 19 20 21 22 23 24 25 26 27 28 29 30 31 32 33 34 35 36 37 38 39 40 41 42 43 44 45 46 47 48 49 50
000
ASUS45 KPSR 241210
RWRAZ

ARIZONA HOURLY REGIONAL WEATHER ROUNDUP
NATIONAL WEATHER SERVICE PHOENIX AZ
500 AM MST SUN SEP 24 2017

NOTE: FAIR INDICATES FEW OR NO CLOUDS BELOW 12,000 FEET WITH NO
SIGNIFICANT WEATHER AND/OR OBSTRUCTIONS TO VISIBILITY.

AZZ001>003-036-241300-
NORTHWEST ARIZONA

CITY           SKY/WX    TMP DP  RH WIND       PRES   REMARKS
BULLHEAD CITY  CLEAR     64  34  32 NE15      29.89S
KINGMAN        CLEAR     44  31  60 E10       29.96S
6HR MIN TEMP:  44; 6HR MAX TEMP:  55;

$$

AZZ004>008-015-016-018-241300-
NORTH CENTRAL ARIZONA

CITY           SKY/WX    TMP DP  RH WIND       PRES   REMARKS
GRAND CANYON   CLEAR     25  18  74 CALM      29.99R
6HR MIN TEMP:  22; 6HR MAX TEMP:  40;

WILLIAMS       CLEAR     27  19  74 S8        29.98S WCI  18
PRESCOTT       CLEAR     37  26  64 S5        29.95R WCI  33
6HR MIN TEMP:  37; 6HR MAX TEMP:  49;

FLAGSTAFF      CLEAR     33  18  53 VRB3      29.97S
6HR MIN TEMP:  32; 6HR MAX TEMP:  41;

PAYSON           N/A     45  19  36 CALM      29.94S
PAGE           CLEAR     49  30  48 VRB3      29.90S
6HR MIN TEMP:  49; 6HR MAX TEMP:  55;

$$

AZZ009>014-017-241300-
NORTHEAST ARIZONA

CITY           SKY/WX    TMP DP  RH WIND       PRES   REMARKS
WINSLOW        CLEAR     36  19  50 SW5       29.95R WCI  32
6HR MIN TEMP:  36; 6HR MAX TEMP:  51;

SAINT JOHNS    CLEAR     42  20  41 CALM      29.96R
6HR MIN TEMP:  41; 6HR MAX TEMP:  51;

WINDOW ROCK    CLEAR     35  21  56 CALM      29.98R
6HR MIN TEMP:  33; 6HR MAX TEMP:  48;

SHOW LOW       CLEAR     34  28  80 VRB3      30.00R
$$

AZZ540-542>544-546-548-241300-
GREATER PHOENIX AREA

CITY           SKY/WX    TMP DP  RH WIND       PRES   REMARKS
PHOENIX        CLEAR     64  32  30 SW3       29.77R
6HR MIN TEMP:  64; 6HR MAX TEMP:  72;

BUCKEYE          N/A     63  23  22 N13       29.80R
LUKE AFB       CLEAR     61  31  32 N9        29.78R
6HR MIN TEMP:  61; 6HR MAX TEMP:  71;

DEER VALLEY    CLEAR     60  27  28 CALM      29.79R
6HR MIN TEMP:  59; 6HR MAX TEMP:  69;

SCOTTSDALE     CLEAR     59  36  42 CALM      29.80R
6HR MIN TEMP:  59; 6HR MAX TEMP:  72;

MESA-GATEWAY   CLEAR     57  27  30 E6        29.79S
$$

AZZ539-553-241300-
SOUTHWEST MARICOPA COUNTY AND PINAL COUNTY

CITY           SKY/WX    TMP DP  RH WIND       PRES   REMARKS
CASA GRANDE    NOT AVBL
GILA BEND      FAIR      57  26  31 SE3       29.78R
6HR MIN TEMP:  57; 6HR MAX TEMP:  67;

$$

AZZ503-504-507>509-241300-
SOUTHEAST ARIZONA

CITY           SKY/WX    TMP DP  RH WIND       PRES   REMARKS
TUCSON         CLEAR     58  28  32 SE6       29.85R
6HR MIN TEMP:  58; 6HR MAX TEMP:  68;

DAVIS-MONTHAN  CLEAR     56  29  35 SE6       29.83R
6HR MIN TEMP:  56; 6HR MAX TEMP:  68;

NOGALES        CLEAR     50  38  63 E6        29.88R
6HR MIN TEMP:  50; 6HR MAX TEMP:  57;

SIERRA VISTA   CLEAR     54  33  44 SW6       29.92S
6HR MIN TEMP:  51; 6HR MAX TEMP:  59;

DOUGLAS        MOCLDY    52  31  44 N3        29.89R
6HR MIN TEMP:  52; 6HR MAX TEMP:  59;

SAFFORD        CLEAR     50  21  32 E3        29.85R
6HR MIN TEMP:  50; 6HR MAX TEMP:  67;

$$

AZZ532-241300-
SOUTHWEST ARIZONA

CITY           SKY/WX    TMP DP  RH WIND       PRES   REMARKS
YUMA           CLEAR     71  27  19 N12       29.78R
6HR MIN TEMP:  67; 6HR MAX TEMP:  74;

$$

CAZ041-043-047-048-061-525>527-560>570-241300-
SOUTHERN CALIFORNIA

CITY           SKY/WX    TMP DP  RH WIND       PRES   REMARKS
DOWNTOWN L.A.  CLEAR     61  51  70 CALM      29.83F
6HR MIN TEMP:  61; 6HR MAX TEMP:  65;

L.A. AIRPORT   CLEAR     60  54  80 E3        29.84S
6HR MIN TEMP:  60; 6HR MAX TEMP:  65;

SAN DIEGO      CLEAR     61  53  75 CALM      29.85S
6HR MIN TEMP:  61; 6HR MAX TEMP:  66;

BURBANK        CLEAR     57  44  62 CALM      29.84F
6HR MIN TEMP:  56; 6HR MAX TEMP:  64;

ONTARIO        CLEAR     56  49  77 CALM      29.85F
6HR MIN TEMP:  56; 6HR MAX TEMP:  62;

RIVERSIDE      CLEAR     54  50  86 E3        29.86S
6HR MIN TEMP:  53; 6HR MAX TEMP:  62;

PALM SPRINGS   CLEAR     62  40  44 NW8       29.85S
6HR MIN TEMP:  62; 6HR MAX TEMP:  72;

EL CENTRO NAS  CLEAR     61  40  45 NW7       29.80S
6HR MIN TEMP:  59; 6HR MAX TEMP:  69;

IMPERIAL       CLEAR     64  43  46 NW5       29.79R
6HR MIN TEMP:  61; 6HR MAX TEMP:  70;

BLYTHE         CLEAR     69  31  24 N18       29.83R
6HR MIN TEMP:  69; 6HR MAX TEMP:  76;

NEEDLES        CLEAR     65  37  35 N14       29.89S
6HR MIN TEMP:  65; 6HR MAX TEMP:  73;

$$

NVZ020-UTZ003-241300-
SOUTHERN NEVADA-UTAH

CITY           SKY/WX    TMP DP  RH WIND       PRES   REMARKS
LAS VEGAS      CLEAR     58  32  37 N7        29.95R
6HR MIN TEMP:  56; 6HR MAX TEMP:  62;

SALT LAKE CITY CLOUDY    48  44  86 NW9       29.89S
6HR MIN TEMP:  44; 6HR MAX TEMP:  48; 6HR PCP:  0.09;

$$

NMZ009-TXZ055-241300-
NEW MEXICO-WEST TEXAS

CITY           SKY/WX    TMP DP  RH WIND       PRES   REMARKS
ALBUQUERQUE    CLOUDY    55  39  54 S5        29.95R
6HR MIN TEMP:  54; 6HR MAX TEMP:  61;

EL PASO        PTCLDY    65  45  48 S3        29.87R
6HR MIN TEMP:  64; 6HR MAX TEMP:  79;

$$


........................KEY........................
SKY/WX - SKY CONDITION/WEATHER
TMP    - TEMPERATURE IN FAHRENHEIT
DP     - DEW POINT IN FAHRENHEIT
RH     - RELATIVE HUMIDITY IN PERCENT
WIND   - DIRECTION AND SPEED IN MILES PER HOUR (MPH)
VRB    - VARIABLE WIND DIRECTION
PRES   - MEAN SEA LEVEL PRESSURE IN INCHES OF MERCURY
         F - FALLING PRESSURE   R - RISING PRESSURE
         S - STEADY PRESSURE
VSB    - VISIBILITY IN MILES
HX     - HEAT INDEX IN FAHRENHEIT
WCI    - WIND CHILL INDEX IN FAHRENHEIT
TC     - TEMPERATURE IN CELSIUS WHICH IS ALSO KNOWN AS
         TEMPERATURE IN CENTIGRADE
AFB    - AIR FORCE BASE
         LUKE AFB IS LUKE AIR FORCE BASE
         DAVIS-MONTHAN IS DAVIS-MONTHAN AIR FORCE BASE
NAS    - NAVAL AIR STATION
         EL CENTRO NAS IS EL CENTRO NAVAL AIR STATION
N/A    - NOT AVAILABLE




USA.gov is the U.S. government's official web portal to all federal, state and local government web resources and services.